Location: Dittelspoint
(48.7198°N, 10.7214°E)
Time: 22:22:22
(UTC+00:00)

Cosmos 841 Rocket - Pass Details

Date: 09 April 2020
Orbit: 747 x 772 km, 74.0° (Epoch: 27 May)

Event Time Altitude Azimuth Distance (km) Brightness Sun altitude
Rises 20:20:47 0° 338° (NNW) 3,259 7.8 -21.2°
Reaches altitude 10° 20:23:12 10° 341° (NNW) 2,327 6.9 -21.5°
Maximum altitude 20:28:28 66° 64° (ENE) 843 3.5 -22.2°
Enters shadow 20:29:30 53° 117° (ESE) 944 3.5 -22.3°
